Starlink 5383

operational
NORAD ID: 54827 Int'l Des: 2022-177 Owner: SPXS Country: US Constellation: starlink
LEOCIRCULAR

关于 Starlink 5383

正在加载描述...

实时位置

正在加载3D地球...

即将过境

高度历史

Altitude vs Time

uPlot chart will show altitude changes over time

两行轨道根数

1 54827U 22177H 25350.37956977 .00004903 00000-0 37788-3 0 9995
2 54827 42.9954 225.9872 0001986 73.9759 286.1302 15.02525162164439
Epoch: Dec 16, 2025 • Age: 26 hours

当前状态

高度 558.2 km
速度 7.58 km/s
星下点 6.86°N, 135.47°E
发射日期 Dec 28, 2022
运行时间 2.9 years
类型 internet

技术详情

分类 Payload
质量 305.00 kg
干质量 290.00 kg
总质量 305.00 kg
长度 0.20 m
直径 2.80 m
跨度 9.00 m
形状 Box + pan
制造商 SPXS
平台类型 Starlink
阶段状态 In Orbit
所有者/国家 SPXS/US

大型星座

Loading constellations...